Orbital Elements at Epoch 2459000.5 (2020-May-31.0) TDB
Reference: JPL 14 (heliocentric ecliptic J2000)
Element | Value | Uncertainty (1-sigma) | Units |
e | .2173570334334126 | 4.577e-08 | |
a | 2.419753117383577 | 1.6284e-08 | au |
q | 1.89380275814783 | 1.0787e-07 | au |
i | 3.92116682068268 | 4.2859e-06 | deg |
node | 90.4667951993752 | 0.00011776 | deg |
peri | 200.8469601762164 | 0.00011932 | deg |
M | 123.7507420011097 | 2.0515e-05 | deg |
tp | 2458527.892809681972 (2019-Feb-13.39280968) | 7.657e-05 | TDB |
period | 1374.849037373566 3.76 | 1.3878e-05 3.8e-08 | d yr |
n | .2618469302547745 | 2.6431e-09 | deg/d |
Q | 2.945703476619324 | 1.9823e-08 | au |
|
| | Orbit Determination Parameters
Additional Information
|